Regional Weather Roundup
Issued by NWS Wakefield, VA

Home | Current Version | Previous Version | Graphics & Text | Print | Product List | Glossary On
Versions: 1 2 3 4 5 6 7 8 9 10 11 12 13 14 15 16 17 18 19 20 21 22 23 24 25 26 27 28
000
ASUS41 KAKQ 221016
RWRAKQ

REGIONAL WEATHER ROUNDUP
NATIONAL WEATHER SERVICE WAKEFIELD VA
600 AM EDT FRI SEP 22 2017

Note: "fair" indicates few or no clouds below 12,000 feet with no
significant weather and/or obstructions to visibility. * = Denotes
station may not report precipitation (e.g., rain,snow,etc.),
thunder or fog.

VAZ042-051-052>054-056-221100-
NORTHERN VIRGINIA

CITY           SKY/WX    TMP DP  RH WIND       PRES   REMARKS
WASH NATIONAL  CLOUDY    70  66  87 N7        30.04R
DULLES         CLOUDY    68  63  84 N6        30.05S
FORT BELVOIR   CLOUDY    69  64  84 NW3       30.04R
QUANTICO       CLOUDY    69  65  86 NW7       30.04S
FREDERICKSBRG* MOCLDY    68  65  90 CALM      30.04R
STAFFORD*      CLOUDY    64  64 100 NW3       30.08S
WARRENTON      CLOUDY    61  57  89 CALM      30.05R FOG
CULPEPER*      CLOUDY    62  62  99 CALM      30.06S
MANASSAS*      CLOUDY    63  62  97 CALM      30.06R
LEESBURG*      CLOUDY    68  64  88 N6        30.07R
WINCHESTER     PTCLDY    57  57 100 CALM      30.09R
FRONT ROYAL*   MOSUNNY   61  61 100 CALM      30.08R
LURAY*         CLOUDY    61  61 100 CALM      30.11R
$$

VAZ048-049-060>072-079>083-221100-
CENTRAL AND SOUTH CENTRAL VIRGINIA

CITY           SKY/WX    TMP DP  RH WIND       PRES   REMARKS
RICHMOND       CLOUDY    69  65  86 W3        30.04R
CHESTERFIELD*  NOT AVBL
PETERSBURG*    CLOUDY    60  60 100 CALM      30.06R
HANOVER        PTCLDY    66  64  93 CALM      30.06R
TAPPAHANNOCK*  PTCLDY   N/A N/A N/A SW3       30.04S
QUINTON*       FAIR      64  64 100 CALM      30.04S
CHARLOTTSVILLE PTCLDY    63  62  97 CALM      30.07R
GORDONSVILLE*  MOSUNNY   62  62 100 CALM      30.06R
ORANGE*        MOCLDY    63  61  94 CALM      30.06S
LOUISA*        CLOUDY    59  57  94 CALM      30.06R
BUMPASS*       FAIR      63  63 100 CALM      30.05S
FARMVILLE*     MOCLDY    61  61 100 CALM      30.06R FOG
CREWE*         FAIR      61  61 100 CALM      30.05S
FORT PICKETT*  FAIR      65  65 100 CALM      30.06R
CHASE CITY*    FAIR      62  62 100 CALM      30.07R
CLARKSVILLE*   FAIR      61  61 100 CALM      30.06R
SOUTH HILL*    CLEAR     61  61 100 CALM      30.11S
LAWRENCEVILLE* FAIR      64  63  97 CALM      30.05S
EMPORIA*       CLEAR     59  59 100 CALM      30.06R
$$

VAZ088>098-221100-
SOUTHEAST VIRGINIA

CITY           SKY/WX    TMP DP  RH WIND       PRES   REMARKS
NORFOLK        CLEAR     69  66  90 SW6       30.02R
VIRGINIA BEACH CLEAR     66  63  90 SW7       30.01R
NORFOLK NAVAL  PTCLDY    69  64  84 SW3       30.04R
WEST POINT*    CLOUDY    70  66  88 SW3       30.05R
SALUDA*        FAIR      70  69  98 W5        30.02S
NEWPORT NEWS   CLEAR     69  66  90 W7        30.03S
LANGLEY AFB    CLEAR     68  67  97 W8        30.02S
FORT EUSTIS    PTCLDY    67  65  93 W5        30.01R
WILLIAMSBURG*  PTCLDY    68  66  94 CALM      30.04S
HR EXEC AP*    FOG       59  59 100 CALM      30.04R VSB 1
FRANKLIN*      PTCLDY    61  60  97 CALM      30.04S
US460-WAKEFLD  PTCLDY    62  62 100 CALM      30.04R
$$

VAZ020-022-025-037-045-221100-
WEST CENTRAL AND SOUTHWEST VIRGINIA

CITY           SKY/WX    TMP DP  RH WIND       PRES   REMARKS
STAUNTON*      PTCLDY    56  55  99 CALM      30.13R FOG
WAYNESBORO*    PTSUNNY   59  59 100 SW5       30.12R
HOT SPRINGS VA CLEAR     63  60  90 W6        30.23S
LYNCHBURG      PTCLDY    62  61  96 CALM      30.09R
DANVILLE       CLEAR     62  62 100 CALM      30.08R FOG
SOUTH BOSTON*  FAIR      62  60  95 CALM      30.07S
MARTINSVILLE   CLEAR     60  60  98 CALM      30.12S
ROANOKE        MOCLDY    67  65  93 CALM      30.13R
BLACKSBURG     MOCLDY    65  65  99 CALM      30.18S FOG
DUBLIN*        MOCLDY    64  64 100 CALM      30.17S FOG
MARION*        CLOUDY    60  58  91 CALM      30.20R FOG
HILLSVILLE*    CLOUDY    62  58  87 CALM      30.17S FOG
RICHLANDS*     FAIR      62  61  96 CALM      30.17S
WISE*          PTCLDY    64  64 100 CALM      30.19R
ABINGDON*      CLEAR     64  64  97 E6        30.15R
$$

MDZ021>025-VAZ099-100-221100-
SOUTHERN MARYLAND AND THE DELMARVA PENINSULA

CITY           SKY/WX    TMP DP  RH WIND       PRES   REMARKS
PATUXENT RIVER CLOUDY    70  68  93 W5        30.01R
BAY BRIDGE APT CLOUDY    72  64  78 NE6       30.02R
LEONARDTOWN    MOCLDY    68  64  88 W3        30.03S
DOVER          CLEAR     66  66 100 N6        30.00S
GEORGETOWN     CLOUDY    70  66  87 N5        30.01R
EASTON         CLEAR     68  64  88 NE6       30.05R
CAMBRIDGE      CLEAR     70  68  94 N6        30.01R
SALISBURY      MOCLDY    66  66 100 NE3       30.01R
OCEAN CITY     CLOUDY    68  67  96 NW5       30.00S
WALLOPS ISLAND CLOUDY    72  71  97 W6        30.01R
ACCOMACK*      CLOUDY    71  69  93 W7        30.01S
$$

NCZ012>017-030>032-221100-
NORTH CENTRAL AND EASTERN NORTH CAROLINA

CITY           SKY/WX    TMP DP  RH WIND       PRES   REMARKS
ROANOKE RAPIDS FAIR      63  63 100 CALM      30.05R FOG
RALEIGH        PTCLDY    63  63 100 CALM      30.06S
ELIZABETH CITY FOG       65  65 100 CALM      30.03R VSB 1/2
AHOSKIE*       CLEAR     62  62 100 CALM      30.05R
EDENTON*       CLEAR     67  65  94 CALM      30.04R
CURRITUCK*     CLEAR     65  64  97 CALM      30.03R
KILL DEVIL HLS CLEAR     67  65  94 CALM      30.01R
MANTEO         CLEAR     69  66  90 W3        30.03R
CAPE HATTERAS  CLEAR     67  66  97 W3        30.02R
TARBORO*       NOT AVBL
GOLDSBORO      CLEAR     65  65 100 CALM      30.03R FOG
WASHINGTON     CLEAR     65  64  97 CALM      30.04S
GREENVILLE     CLEAR     66  66 100 CALM      30.05S FOG
NEW BERN       CLEAR     65  65 100 CALM      30.05R FOG
WILMINGTON     CLEAR     68  66  93 CALM      30.04R
$$

VAZ048-221100-
ELSEWHERE

CITY           SKY/WX    TMP DP  RH WIND       PRES   REMARKS
HARRISBURG PA  MOCLDY    67  65  93 NW6       30.05R
BALTIMORE      MOCLDY    67  65  93 W3        30.03R
ANNAPOLIS      CLOUDY    74  71  91 N6        30.02R
ANDREWS AFB    CLOUDY    67  63  85 N7        30.03R
PHILADELPHIA   CLOUDY    71  58  63 N9        30.02S
HENDERSON NC   CLEAR     60  60  98 CALM      30.06S FOG
GREENSBORO     CLEAR     66  66 100 CALM      30.08R
ROCKY MOUNT    FOG       64  64 100 CALM      30.05R VSB 1/4
$$

VAZ100-221100-
MARINE

STATION/POSITION TIME  TEMP    WIND        PRES    WAVE   SWELL
                       AIR SEA DIR/SP/G            HT/PER HT/PER
                 (UTC) (F)     (DEG/KT/KT) (MB)    (FT/S) (FT/S)
BRANDYWINE LGT   0936   74      30/ 15/ 15 1016.1F
CAPE MAY NJ      0948   71 74   20/  3/  6 1015.4R
LEWES DE         0948   74 74   30/  9/ 12 1015.8S
15NM E FENWICK I 0950   73 72  300/ 10/ 14 1015.9R   6/11   7/11
OCEAN-CITY-INLET 0948   70 75  320/  5/  6 1016.1R
WACHAPREAGUE VA  0948   70 76  270/  4/  7 1016.2R
THOMAS POINT MD  1000   74 76   30/ 13/ 14   N/A
GOOSES REEF MD   1000   76 75   40/ 10/ 12 1016.9    2
COVE POINT MD    0948   72     330/  7/  8 1016.9R
SOLOMONS ISLAND  0948   72 76  310/  4/  7 1015.9R
BISHOPS HEAD MD  0948   75 76  300/  8/ 11 1016.1R
PINEY POINT MD   0948          320/ 12/ 13   N/A
POTOMAC MD       1000   73 76  270/ 10/ 12 1015.5    1/ 2
CAMBRIDGE MD     0936   72 76              1016.9R
LEWISETTA VA     0948   71 77  300/  5/  6 1016.2R
RAPPAHANNOCK LGT 0948          250/ 15/ 17 1016.8R
STINGRAY PT      1000   72 76  300/ 12/ 16 1016.6    1
YORK RVR RNG VA  0948   72     280/ 14/ 15 1016.7S
YORKTOWN VA      0948   70 76  290/  6/  7 1016.4R
JAMESTOWN VA     1000      78  290/  6/  8   N/A
DOMINION TERM VA 0948   71     300/  7/  9 1016.8R
KIPTOPEKE VA     0948      76  290/ 10/ 11   N/A
CHES BAY BRIDGE  0948   72 75  250/ 11/ 12 1016.3R
CAPE HENRY VA    0948   69     240/  8/ 11   N/A
WILLOUBY STN VA  0948   72     270/ 11/ 12 1016.5R
S CRANEY ISL VA  0948   69     240/  4/  5 1016.5R
CAPE HENRY BUOY  0930      74                N/A     4/11   3/11
1ST LANDING BUOY 1000   73 75              1016.4    2/ 4
64NM E OF VA BCH 0950   69 69  280/  6/  8 1016.7R   8/11   8/11
DUCK PIER NC     0948   72 75  250/  7/  8 1016.0R
44100 DUCK FRF   0935      74                N/A     6/11   3/11
44056 DUCK FRF   1000      75                N/A     5/12   3/12
OREGON INLET NC  0936   73 78  230/  7/  8 1016.1S
HATTERAS NC      0948   74 78  300/  4/  5 1016.6R
DIAMOND SHLS NC  0950   74 76  310/  6/  6 1016.4R   5/12   5/12
CAPE LOOKOUT NC  1000   76      60/  9/ 10 1016.6R
$$




USA.gov is the U.S. government's official web portal to all federal, state and local government web resources and services.